Regional Weather Roundup
Issued by NWS

Home | Current Version | Previous Version | Graphics & Text | Print | Product List | Glossary On
Versions: 1 2 3 4 5 6 7 8 9 10 11 12 13 14 15 16 17 18 19 20 21 22 23 24 25 26 27 28 29 30 31 32 33 34 35 36 37 38 39 40 41 42 43 44 45 46 47 48 49 50
000
ASUS43 KFSD 250410
RWRSD

WEATHER ROUNDUP FOR SOUTH DAKOTA
NATIONAL WEATHER SERVICE SIOUX FALLS SD
1100 PM CDT SUN JUL 24 2016

NOTE: "FAIR" INDICATES FEW OR NO CLOUDS BELOW 12,000 FEET WITH NO
SIGNIFICANT WEATHER AND/OR OBSTRUCTIONS TO VISIBILITY.


SDZ001>005-009-010-012>017-250500-
NORTHWEST AND NORTH CENTRAL SOUTH DAKOTA

CITY           SKY/WX    TMP DP  RH WIND       PRES   REMARKS
BUFFALO          N/A     73  46  38 SE12      30.00R
FAITH            N/A     72  44  36 SE9       30.08R
MOBRIDGE       CLEAR     71  56  58 E5        30.04R
$$

SDZ012>016-024>037-041>051-057-063-072>074-250500-
SOUTHWEST AND SOUTH CENTRAL SOUTH DAKOTA

CITY           SKY/WX    TMP DP  RH WIND       PRES   REMARKS
RAPID CTY ARPT CLEAR     69  50  50 S6        30.11R
PIERRE         CLEAR     66  51  58 E3        30.06R
CUSTER         CLEAR     66  45  46 E7        30.27R
ELLSWORTH AFB  CLEAR     72  51  46 S1        30.10R
PHILIP         CLEAR     67  55  65 E6        30.08R
PINE RIDGE     CLEAR     73  50  44 E6        30.14R
WINNER         FAIR      70  53  54 SE9       30.11S
$$

SDZ004>011-016>023-039-040-250500-
NORTHEAST SOUTH DAKOTA

CITY           SKY/WX    TMP DP  RH WIND       PRES   REMARKS
ABERDEEN       CLEAR     66  59  78 S3        30.05R
WATERTOWN      CLEAR     69  60  73 W5        30.07R
BROOKINGS      CLEAR     68  64  87 CALM      30.08R
SISSETON         N/A     68  58  70 W7        30.01R
$$

SDZ017-020-022-023-036>040-048>070-250500-
SOUTHEAST SOUTH DAKOTA

CITY           SKY/WX    TMP DP  RH WIND       PRES   REMARKS
SIOUX FALLS    PTCLDY    68  63  84 SW3       30.08R
HURON          CLEAR     71  60  68 SW6       30.06R
CHAMBERLAIN    CLEAR     71  53  53 CALM      30.09S
MITCHELL       CLEAR     70  61  73 SW3       30.09R
YANKTON        CLOUDY    72  61  68 CALM      30.08S
$$

ABBREVIATIONS USED IN REMARKS
   TC - TEMPERATURE IN CELSIUS
  WCI - WIND CHILL INDEX
   HX - HEAT INDEX
  VSB - VISIBILITY




USA.gov is the U.S. government's official web portal to all federal, state and local government web resources and services.